Weather History for Wolf Point, MT

Change the Weather History Date:

Friday, June 21, 2013

  Actual Average Record
Temperature  
Mean Temperature 63 °F -  
Max Temperature 76 °F 79 °F 91 °F (1999)
Min Temperature 50 °F 50 °F 44 °F (2003)
Degree Days  
Heating Degree Days 2    
Cooling Degree Days 0    
Growing Degree Days 15 (Base 50)    
Moisture  
Dew Point 52 °F    
Average Humidity 71    
Maximum Humidity 96    
Minimum Humidity 40    
Precipitation  
Precipitation 0.15 in 0.09 in 0.62 in (2005)
Month to date precipitation 2.86 2.11  
Year to date precipitation 8.42 5.81  
Sea Level Pressure  
Sea Level Pressure 29.99 in    
Wind  
Wind Speed 6 mph (NNE)    
Max Wind Speed 15 mph    
Max Gust Speed -    
Visibility 10 miles    
Events Rain , Thunderstorm    
T = Trace of Precipitation, MM = Missing Value Source: NWS Daily Summary

Daily Weather History Graph

Daily Weather History Graph

Search for Another Location

Airport:

Trip Planner

Search our weather history database for the weather conditions in past years. The results will help you decide how hot, cold, wet, or windy it might be!

Date:

Astronomy

Jun. 21, 2013 Rise Set
Actual Time 5:02 AM MDT 9:06 PM MDT
Civil Twilight 4:20 AM MDT 9:47 PM MDT
Nautical Twilight 3:22 AM MDT 10:45 PM MDT
Astronomical Twilight 1:40 AM MDT 12:27 AM MDT
Moon 7:13 PM MDT 3:27 AM MDT
Length of Visible Light 17h 26m
Length of Day
16h 03m
Waxing Gibbous, 95% of the Moon is Illuminated
Jun 21
Waxing Gibbous
Jun 23
Full
Jun 29
Last Quarter
Jul 8
New
Jul 15
First Quarter

Hourly Weather History & Observations

Time (MDT) Temp. Dew Point Humidity Pressure Visibility Wind Dir Wind Speed Gust Speed Precip Events Conditions
12:53 AM 55.0 °F 46.0 °F 72% 29.96 in 10.0 mi WSW 5.8 mph - N/A   Clear
1:53 AM 57.9 °F 48.0 °F 70% 29.91 in 10.0 mi NNW 15.0 mph - N/A   Mostly Cloudy
2:53 AM 59.0 °F 48.0 °F 67% 29.96 in 10.0 mi South 4.6 mph - 0.00 in   Overcast
3:53 AM 55.9 °F 48.9 °F 77% 29.96 in 10.0 mi East 5.8 mph - N/A   Mostly Cloudy
4:53 AM 55.9 °F 51.1 °F 84% 30.00 in 10.0 mi Calm Calm - 0.01 in   Mostly Cloudy
5:53 AM 55.9 °F 51.1 °F 84% 30.00 in 10.0 mi Calm Calm - 0.01 in Rain Light Rain
6:53 AM 55.9 °F 52.0 °F 87% 29.99 in 10.0 mi Calm Calm - 0.01 in   Overcast
7:53 AM 57.0 °F 53.1 °F 87% 30.02 in 10.0 mi East 5.8 mph - 0.03 in Rain Light Rain
8:53 AM 57.9 °F 54.0 °F 87% 30.04 in 10.0 mi NNW 4.6 mph - 0.02 in Rain Light Rain
9:53 AM 62.1 °F 53.1 °F 72% 30.03 in 10.0 mi Calm Calm - 0.00 in   Overcast
10:53 AM 64.9 °F 55.0 °F 70% 30.03 in 10.0 mi Calm Calm - N/A   Overcast
11:53 AM 71.1 °F 50.0 °F 47% 30.01 in 10.0 mi Calm Calm - N/A   Scattered Clouds
12:53 PM 73.9 °F 48.9 °F 41% 29.97 in 10.0 mi North 5.8 mph - N/A   Clear
1:53 PM 75.0 °F 50.0 °F 41% 29.95 in 10.0 mi NW 8.1 mph - N/A   Clear
2:53 PM 73.9 °F 48.0 °F 40% 29.95 in 10.0 mi East 5.8 mph - N/A   Mostly Cloudy
3:53 PM 73.0 °F 50.0 °F 44% 29.97 in 10.0 mi ENE 6.9 mph - N/A   Clear
4:53 PM 72.0 °F 52.0 °F 49% 29.97 in 10.0 mi NNE 8.1 mph - N/A   Mostly Cloudy
5:53 PM 69.1 °F 52.0 °F 54% 29.98 in 10.0 mi NNE 8.1 mph - N/A   Overcast
6:18 PM 66.2 °F 53.6 °F 64% 29.97 in 10.0 mi North 15.0 mph - 0.00 in Rain , Thunderstorm Light Rain
6:53 PM 64.0 °F 55.0 °F 73% 30.00 in 10.0 mi NNE 6.9 mph - 0.01 in Rain , Thunderstorm Light Rain
7:01 PM 62.6 °F 55.4 °F 77% 30.00 in 10.0 mi SE 3.5 mph - 0.00 in Rain Light Rain
7:53 PM 60.1 °F 57.0 °F 90% 30.02 in 9.0 mi West 5.8 mph - 0.03 in Rain Light Rain
8:53 PM 59.0 °F 57.0 °F 93% 30.00 in 10.0 mi NE 8.1 mph - 0.03 in Rain Light Rain
9:53 PM 57.0 °F 54.0 °F 89% 30.01 in 10.0 mi West 12.7 mph - 0.00 in   Clear
10:53 PM 55.9 °F 54.0 °F 93% 30.01 in 10.0 mi Calm Calm - N/A   Clear
11:53 PM 53.1 °F 52.0 °F 96% 29.98 in 10.0 mi Calm Calm - N/A   Clear